QPF
0.00 0.00 0.00 0.01 0.01 0.01 0.00 0.00 0.00 0.00 0.00 0.00 0.00 0.00 0.00 0.00 0.01 0.01 0.02 0.01 0.00 0.01 0.01 0.01 0.02 0.02 0.02 0.01 0.00 0.00 0.00 0.00 0.00 0.00 0.00 0.01 0.01 0.01 0.02 0.01 0.01 0.01 0.01 0.01 0.01 0.01 0.01 0.01 0.01
0.00 0.00 0.01 0.02 0.02 0.01 0.00 0.00 0.00 0.00 0.00 0.00 0.00 0.00 0.00 0.01 0.01 0.00 0.01 0.01 0.01 0.01 0.01 0.01 0.02 0.02 0.02 0.01 0.01 0.01 0.00 0.00 0.00 0.00 0.01 0.01 0.01 0.01 0.01 0.01 0.01 0.01 0.01 0.02 0.01 0.01 0.02 0.01 0.01
0.01 0.01 0.02 0.02 0.01 0.01 0.00 0.00 0.00 0.00 0.00 0.00 0.00 0.00 0.00 0.01 0.00 0.01 0.02 0.02 0.02 0.01 0.01 0.01 0.02 0.02 0.02 0.02 0.01 0.01 0.00 0.00 0.00 0.00 0.00 0.01 0.01 0.01 0.01 0.01 0.01 0.01 0.01 0.01 0.01 0.01 0.01 0.01 0.01
0.02 0.03 0.02 0.02 0.01 0.00 0.00 0.00 0.00 0.00 0.00 0.00 0.00 0.00 0.00 0.01 0.00 0.01 0.01 0.01 0.01 0.01 0.01 0.01 0.01 0.02 0.03 0.03 0.03 0.02 0.00 0.00 0.00 0.00 0.00 0.01 0.00 0.00 0.00 0.01 0.01 0.01 0.01 0.01 0.01 0.01 0.01 0.01 0.01
0.04 0.04 0.03 0.01 0.01 0.01 0.00 0.00 0.00 0.00 0.00 0.00 0.00 0.00 0.01 0.01 0.01 0.02 0.02 0.01 0.01 0.01 0.01 0.01 0.02 0.02 0.03 0.04 0.03 0.02 0.01 0.00 0.00 0.00 0.01 0.01 0.01 0.00 0.00 0.00 0.00 0.01 0.01 0.01 0.01 0.01 0.01 0.01 0.01
0.05 0.06 0.04 0.01 0.01 0.01 0.00 0.00 0.00 0.00 0.00 0.00 0.00 0.00 0.01 0.01 0.01 0.01 0.02 0.01 0.01 0.01 0.01 0.01 0.02 0.02 0.02 0.03 0.05 0.03 0.03 0.01 0.01 0.01 0.01 0.01 0.01 0.00 0.00 0.00 0.00 0.00 0.01 0.00 0.01 0.01 0.01 0.02 0.01
0.05 0.06 0.05 0.01 0.01 0.01 0.00 0.00 0.00 0.00 0.00 0.00 0.00 0.00 0.01 0.02 0.02 0.01 0.01 0.01 0.01 0.01 0.01 0.01 0.01 0.01 0.02 0.03 0.04 0.04 0.03 0.02 0.01 0.02 0.01 0.01 0.01 0.00 0.00 0.00 0.00 0.00 0.01 0.01 0.01 0.01 0.01 0.01 0.01
0.06 0.07 0.07 0.02 0.01 0.00 0.00 0.00 0.00 0.00 0.00 0.00 0.00 0.00 0.01 0.03 0.02 0.02 0.02 0.02 0.01 0.01 0.01 0.01 0.01 0.01 0.02 0.02 0.03 0.03 0.03 0.03 0.02 0.02 0.01 0.01 0.01 0.01 0.01 0.01 0.01 0.00 0.00 0.01 0.01 0.01 0.01 0.01 0.01
0.05 0.06 0.06 0.04 0.02 0.00 0.00 0.00 0.00 0.00 0.00 0.00 0.00 0.01 0.01 0.03 0.03 0.03 0.03 0.03 0.02 0.01 0.02 0.02 0.02 0.01 0.01 0.02 0.03 0.03 0.04 0.03 0.02 0.01 0.01 0.01 0.01 0.01 0.00 0.01 0.01 0.00 0.00 0.00 0.01 0.01 0.01 0.01 0.01
0.05 0.05 0.04 0.03 0.03 0.01 0.01 0.01 0.01 0.01 0.00 0.01 0.01 0.01 0.02 0.03 0.04 0.04 0.03 0.03 0.03 0.02 0.02 0.03 0.03 0.02 0.02 0.02 0.03 0.04 0.04 0.03 0.03 0.01 0.01 0.02 0.01 0.01 0.00 0.01 0.02 0.01 0.01 0.01 0.01 0.01 0.01 0.01 0.00
0.04 0.03 0.02 0.02 0.02 0.02 0.02 0.02 0.02 0.01 0.00 0.00 0.00 0.01 0.02 0.02 0.04 0.05 0.05 0.04 0.03 0.03 0.02 0.03 0.02 0.03 0.03 0.02 0.03 0.04 0.04 0.03 0.03 0.01 0.01 0.02 0.03 0.02 0.01 0.01 0.01 0.02 0.01 0.01 0.01 0.02 0.01 0.00 0.00
0.02 0.02 0.02 0.03 0.02 0.02 0.02 0.03 0.03 0.02 0.01 0.00 0.00 0.00 0.01 0.01 0.02 0.03 0.04 0.04 0.04 0.03 0.03 0.04 0.04 0.03 0.03 0.02 0.02 0.04 0.05 0.04 0.03 0.01 0.01 0.01 0.02 0.03 0.02 0.01 0.00 0.01 0.00 0.00 0.01 0.01 0.01 0.01 0.01
0.02 0.03 0.02 0.02 0.03 0.02 0.01 0.02 0.02 0.03 0.02 0.01 0.01 0.00 0.01 0.01 0.01 0.02 0.03 0.04 0.04 0.05 0.06 0.05 0.06 0.05 0.04 0.03 0.02 0.04 0.05 0.05 0.04 0.03 0.02 0.01 0.01 0.01 0.02 0.02 0.01 0.00 0.00 0.00 0.00 0.01 0.01 0.01 0.01
0.02 0.04 0.04 0.02 0.02 0.02 0.01 0.01 0.01 0.01 0.02 0.02 0.01 0.00 0.01 0.01 0.01 0.02 0.03 0.04 0.03 0.05 0.06 0.06 0.07 0.08 0.07 0.05 0.02 0.02 0.06 0.06 0.04 0.04 0.03 0.03 0.03 0.03 0.02 0.03 0.03 0.01 0.01 0.01 0.01 0.01 0.01 0.01 0.02
0.02 0.03 0.04 0.02 0.02 0.02 0.01 0.01 0.01 0.00 0.01 0.01 0.01 0.00 0.00 0.00 0.01 0.01 0.03 0.03 0.03 0.04 0.06 0.07 0.07 0.08 0.10 0.08 0.03 0.02 0.05 0.09 0.07 0.05 0.05 0.04 0.04 0.04 0.04 0.03 0.03 0.02 0.01 0.01 0.02 0.02 0.02 0.02 0.02
0.02 0.02 0.02 0.02 0.02 0.02 0.01 0.01 0.01 0.00 0.00 0.01 0.01 0.00 0.00 0.00 0.01 0.01 0.02 0.03 0.04 0.04 0.05 0.06 0.06 0.09 0.11 0.12 0.07 0.04 0.03 0.06 0.07 0.05 0.04 0.04 0.06 0.05 0.04 0.04 0.03 0.02 0.01 0.01 0.01 0.01 0.02 0.02 0.02
0.02 0.01 0.01 0.02 0.02 0.02 0.01 0.01 0.00 0.00 0.00 0.00 0.01 0.00 0.00 0.00 0.01 0.01 0.02 0.02 0.03 0.04 0.05 0.06 0.07 0.09 0.12 0.14 0.12 0.06 0.03 0.03 0.05 0.04 0.03 0.03 0.04 0.05 0.04 0.04 0.04 0.03 0.02 0.02 0.01 0.01 0.01 0.01 0.01
0.03 0.02 0.01 0.02 0.01 0.01 0.01 0.00 0.00 0.00 0.00 0.00 0.01 0.01 0.01 0.00 0.01 0.01 0.02 0.02 0.02 0.04 0.05 0.06 0.07 0.09 0.11 0.14 0.15 0.08 0.04 0.03 0.03 0.04 0.03 0.03 0.03 0.03 0.03 0.03 0.04 0.04 0.04 0.03 0.02 0.02 0.01 0.01 0.02
0.02 0.02 0.01 0.01 0.01 0.01 0.00 0.00 0.00 0.00 0.00 0.01 0.02 0.02 0.01 0.01 0.01 0.02 0.03 0.02 0.02 0.03 0.05 0.07 0.07 0.08 0.10 0.14 0.13 0.10 0.06 0.04 0.04 0.03 0.03 0.03 0.04 0.04 0.03 0.02 0.02 0.03 0.04 0.04 0.03 0.02 0.03 0.03 0.02
0.02 0.02 0.01 0.01 0.01 0.01 0.00 0.00 0.00 0.00 0.00 0.00 0.00 0.00 0.00 0.01 0.01 0.02 0.02 0.02 0.01 0.03 0.04 0.05 0.06 0.08 0.08 0.11 0.12 0.09 0.08 0.05 0.04 0.03 0.03 0.02 0.03 0.03 0.02 0.02 0.02 0.02 0.03 0.03 0.03 0.03 0.03 0.03 0.03
0.01 0.01 0.01 0.01 0.03 0.01 0.00 0.00 0.00 0.00 0.00 0.00 0.00 0.00 0.00 0.00 0.01 0.01 0.01 0.01 0.01 0.02 0.03 0.04 0.04 0.06 0.07 0.09 0.10 0.08 0.07 0.06 0.04 0.03 0.03 0.02 0.02 0.02 0.01 0.01 0.01 0.01 0.01 0.02 0.02 0.02 0.01 0.02 0.03
0.01 0.01 0.01 0.00 0.01 0.01 0.01 0.01 0.00 0.00 0.00 0.00 0.00 0.00 0.00 0.00 0.00 0.01 0.02 0.01 0.01 0.01 0.01 0.02 0.03 0.04 0.06 0.07 0.09 0.08 0.07 0.06 0.04 0.03 0.02 0.02 0.01 0.01 0.01 0.01 0.01 0.01 0.01 0.01 0.01 0.01 0.01 0.01 0.01
0.01 0.01 0.01 0.00 0.00 0.00 0.00 0.01 0.00 0.00 0.00 0.00 0.00 0.00 0.00 0.00 0.00 0.01 0.02 0.01 0.01 0.01 0.01 0.01 0.02 0.03 0.04 0.04 0.05 0.07 0.07 0.05 0.05 0.03 0.02 0.01 0.01 0.00 0.00 0.00 0.00 0.00 0.00 0.01 0.01 0.01 0.01 0.01 0.01
0.01 0.01 0.02 0.01 0.01 0.01 0.00 0.01 0.01 0.00 0.00 0.00 0.01 0.01 0.00 0.00 0.01 0.01 0.01 0.01 0.01 0.01 0.01 0.01 0.01 0.02 0.03 0.03 0.03 0.03 0.05 0.05 0.04 0.03 0.02 0.01 0.01 0.01 0.00 0.00 0.00 0.00 0.00 0.00 0.01 0.01 0.01 0.01 0.01
0.01 0.02 0.03 0.02 0.01 0.00 0.00 0.00 0.01 0.01 0.00 0.00 0.00 0.01 0.01 0.01 0.01 0.01 0.01 0.01 0.01 0.01 0.01 0.01 0.01 0.01 0.01 0.02 0.03 0.02 0.02 0.02 0.02 0.02 0.02 0.01 0.01 0.00 0.00 0.00 0.00 0.00 0.00 0.00 0.01 0.01 0.01 0.01 0.01
0.01 0.01 0.02 0.03 0.02 0.01 0.00 0.00 0.01 0.01 0.00 0.00 0.00 0.00 0.01 0.01 0.01 0.01 0.01 0.01 0.01 0.01 0.01 0.01 0.01 0.01 0.01 0.01 0.02 0.03 0.02 0.01 0.01 0.01 0.01 0.01 0.00 0.00 0.00 0.00 0.00 0.00 0.01 0.01 0.01 0.01 0.01 0.01 0.01
0.01 0.01 0.01 0.01 0.01 0.02 0.01 0.01 0.01 0.00 0.00 0.00 0.00 0.00 0.00 0.01 0.01 0.01 0.00 0.00 0.00 0.01 0.00 0.00 0.00 0.00 0.00 0.00 0.00 0.01 0.02 0.01 0.01 0.00 0.00 0.00 0.00 0.00 0.00 0.00 0.01 0.00 0.01 0.01 0.01 0.01 0.02 0.01 0.01
0.01 0.01 0.01 0.01 0.01 0.04 0.02 0.01 0.01 0.00 0.00 0.00 0.00 0.00 0.00 0.00 0.00 0.00 0.00 0.00 0.00 0.00 0.00 0.00 0.00 0.00 0.00 0.00 0.00 0.00 0.00 0.01 0.01 0.01 0.00 0.00 0.00 0.00 0.00 0.00 0.01 0.01 0.01 0.01 0.01 0.01 0.02 0.02 0.01
0.01 0.01 0.01 0.01 0.01 0.02 0.01 0.01 0.00 0.00 0.00 0.00 0.00 0.00 0.00 0.00 0.00 0.00 0.00 0.00 0.00 0.00 0.00 0.00 0.00 0.00 0.00 0.00 0.00 0.00 0.00 0.00 0.00 0.00 0.00 0.00 0.00 0.01 0.01 0.01 0.01 0.01 0.01 0.01 0.01 0.01 0.01 0.01 0.01
0.00 0.01 0.01 0.01 0.01 0.01 0.00 0.00 0.00 0.00 0.00 0.00 0.00 0.00 0.00 0.00 0.00 0.00 0.00 0.00 0.00 0.00 0.00 0.00 0.00 0.00 0.00 0.00 0.00 0.00 0.00 0.00 0.00 0.00 0.00 0.00 0.00 0.00 0.00 0.00 0.00 0.00 0.00 0.00 0.00 0.00 0.00 0.00 0.00
MSLP
1015.40 1016.18 1017.15 1018.17 1019.09 1019.79 1020.21 1020.33 1020.22 1019.98 1019.73 1019.60 1019.65 1019.91 1020.34 1020.86 1021.38 1021.80 1022.06 1022.14 1022.06 1021.87 1021.62 1021.38 1021.18 1021.02 1020.91 1020.79 1020.65 1020.44 1020.18 1019.86 1019.54 1019.23 1018.97 1018.77 1018.62 1018.51 1018.41 1018.28 1018.11 1017.88 1017.60 1017.29 1016.98 1016.68 1016.40 1016.16 1015.95
1015.86 1016.78 1017.84 1018.87 1019.73 1020.32 1020.58 1020.54 1020.28 1019.92 1019.61 1019.45 1019.50 1019.79 1020.25 1020.80 1021.34 1021.77 1022.03 1022.11 1022.04 1021.85 1021.62 1021.40 1021.22 1021.08 1020.97 1020.86 1020.71 1020.52 1020.27 1019.98 1019.69 1019.43 1019.20 1019.02 1018.88 1018.75 1018.61 1018.43 1018.21 1017.94 1017.63 1017.30 1016.97 1016.66 1016.37 1016.10 1015.87
1016.30 1017.32 1018.41 1019.41 1020.18 1020.64 1020.76 1020.58 1020.21 1019.80 1019.47 1019.33 1019.43 1019.77 1020.27 1020.85 1021.39 1021.81 1022.06 1022.13 1022.05 1021.87 1021.66 1021.46 1021.30 1021.17 1021.07 1020.95 1020.81 1020.61 1020.38 1020.11 1019.85 1019.61 1019.40 1019.22 1019.06 1018.90 1018.71 1018.48 1018.21 1017.90 1017.57 1017.23 1016.90 1016.59 1016.31 1016.04 1015.79
1016.67 1017.74 1018.82 1019.75 1020.41 1020.74 1020.73 1020.46 1020.04 1019.62 1019.34 1019.27 1019.45 1019.85 1020.39 1020.98 1021.52 1021.91 1022.13 1022.17 1022.09 1021.92 1021.73 1021.56 1021.42 1021.32 1021.22 1021.10 1020.94 1020.74 1020.50 1020.24 1019.99 1019.76 1019.55 1019.36 1019.18 1018.97 1018.74 1018.45 1018.14 1017.79 1017.45 1017.11 1016.80 1016.51 1016.25 1016.00 1015.75
1016.94 1018.02 1019.04 1019.87 1020.41 1020.61 1020.51 1020.19 1019.78 1019.42 1019.23 1019.26 1019.54 1020.01 1020.59 1021.18 1021.68 1022.03 1022.21 1022.23 1022.14 1021.99 1021.84 1021.71 1021.61 1021.53 1021.43 1021.30 1021.13 1020.90 1020.64 1020.37 1020.11 1019.87 1019.66 1019.46 1019.25 1019.01 1018.73 1018.40 1018.05 1017.68 1017.33 1017.01 1016.72 1016.46 1016.22 1015.99 1015.75
1017.12 1018.15 1019.08 1019.79 1020.20 1020.31 1020.15 1019.83 1019.47 1019.21 1019.14 1019.30 1019.67 1020.20 1020.80 1021.37 1021.83 1022.13 1022.26 1022.27 1022.19 1022.08 1021.98 1021.90 1021.85 1021.79 1021.70 1021.55 1021.35 1021.09 1020.80 1020.50 1020.22 1019.98 1019.76 1019.54 1019.32 1019.05 1018.74 1018.39 1018.01 1017.63 1017.28 1016.96 1016.69 1016.46 1016.24 1016.01 1015.77
1017.24 1018.19 1019.00 1019.58 1019.87 1019.90 1019.71 1019.42 1019.15 1019.02 1019.08 1019.36 1019.82 1020.40 1021.00 1021.53 1021.93 1022.17 1022.27 1022.27 1022.22 1022.16 1022.13 1022.12 1022.12 1022.09 1022.00 1021.84 1021.60 1021.30 1020.97 1020.64 1020.35 1020.09 1019.87 1019.66 1019.43 1019.16 1018.84 1018.47 1018.08 1017.69 1017.33 1017.01 1016.74 1016.51 1016.29 1016.05 1015.79
1017.34 1018.19 1018.87 1019.32 1019.51 1019.47 1019.28 1019.04 1018.87 1018.86 1019.04 1019.43 1019.96 1020.55 1021.13 1021.61 1021.95 1022.14 1022.22 1022.23 1022.22 1022.22 1022.27 1022.33 1022.39 1022.39 1022.31 1022.13 1021.86 1021.52 1021.15 1020.80 1020.50 1020.24 1020.03 1019.84 1019.62 1019.36 1019.04 1018.66 1018.26 1017.86 1017.48 1017.14 1016.85 1016.59 1016.35 1016.09 1015.79
1017.45 1018.21 1018.78 1019.11 1019.21 1019.12 1018.93 1018.75 1018.66 1018.76 1019.04 1019.50 1020.06 1020.65 1021.18 1021.61 1021.89 1022.04 1022.10 1022.13 1022.18 1022.26 1022.38 1022.53 1022.64 1022.68 1022.61 1022.41 1022.11 1021.74 1021.35 1020.98 1020.68 1020.44 1020.25 1020.07 1019.88 1019.64 1019.33 1018.95 1018.54 1018.11 1017.70 1017.33 1016.99 1016.69 1016.39 1016.08 1015.74
1017.63 1018.30 1018.76 1019.00 1019.02 1018.90 1018.73 1018.59 1018.58 1018.74 1019.09 1019.57 1020.13 1020.68 1021.16 1021.52 1021.75 1021.87 1021.94 1022.00 1022.10 1022.26 1022.47 1022.68 1022.85 1022.92 1022.86 1022.66 1022.34 1021.96 1021.56 1021.19 1020.90 1020.68 1020.51 1020.36 1020.20 1019.97 1019.67 1019.29 1018.86 1018.41 1017.96 1017.54 1017.14 1016.78 1016.42 1016.04 1015.63
1017.86 1018.47 1018.86 1019.02 1019.00 1018.86 1018.70 1018.59 1018.62 1018.82 1019.17 1019.65 1020.16 1020.66 1021.07 1021.37 1021.56 1021.66 1021.75 1021.85 1022.02 1022.25 1022.52 1022.79 1023.00 1023.09 1023.05 1022.85 1022.54 1022.16 1021.77 1021.42 1021.14 1020.94 1020.80 1020.67 1020.52 1020.31 1020.02 1019.64 1019.19 1018.70 1018.22 1017.74 1017.29 1016.85 1016.42 1015.98 1015.51
1018.16 1018.72 1019.06 1019.18 1019.13 1018.98 1018.82 1018.74 1018.77 1018.97 1019.29 1019.71 1020.17 1020.59 1020.93 1021.17 1021.33 1021.44 1021.55 1021.70 1021.92 1022.21 1022.53 1022.84 1023.08 1023.20 1023.17 1022.99 1022.69 1022.33 1021.97 1021.64 1021.39 1021.21 1021.08 1020.97 1020.83 1020.62 1020.32 1019.94 1019.48 1018.97 1018.45 1017.93 1017.42 1016.93 1016.43 1015.93 1015.41
1018.50 1019.02 1019.32 1019.42 1019.37 1019.22 1019.07 1018.98 1019.00 1019.16 1019.42 1019.76 1020.12 1020.46 1020.74 1020.94 1021.09 1021.21 1021.36 1021.56 1021.82 1022.15 1022.51 1022.84 1023.10 1023.23 1023.21 1023.06 1022.80 1022.48 1022.15 1021.86 1021.63 1021.46 1021.34 1021.22 1021.08 1020.86 1020.56 1020.18 1019.71 1019.20 1018.66 1018.12 1017.58 1017.04 1016.50 1015.94 1015.38
1018.85 1019.34 1019.62 1019.71 1019.66 1019.52 1019.37 1019.27 1019.25 1019.34 1019.52 1019.75 1020.02 1020.27 1020.49 1020.67 1020.82 1020.98 1021.17 1021.42 1021.73 1022.08 1022.45 1022.79 1023.04 1023.18 1023.19 1023.08 1022.86 1022.60 1022.31 1022.06 1021.85 1021.69 1021.56 1021.43 1021.26 1021.04 1020.73 1020.35 1019.90 1019.41 1018.88 1018.34 1017.78 1017.22 1016.65 1016.07 1015.47
1019.21 1019.65 1019.91 1019.99 1019.95 1019.82 1019.67 1019.54 1019.47 1019.47 1019.54 1019.66 1019.83 1020.00 1020.18 1020.35 1020.53 1020.74 1020.98 1021.28 1021.62 1021.99 1022.36 1022.69 1022.94 1023.09 1023.13 1023.06 1022.90 1022.69 1022.47 1022.25 1022.06 1021.90 1021.75 1021.59 1021.40 1021.16 1020.86 1020.49 1020.08 1019.62 1019.13 1018.61 1018.08 1017.52 1016.94 1016.33 1015.72
1019.57 1019.95 1020.18 1020.26 1020.22 1020.10 1019.94 1019.77 1019.62 1019.52 1019.47 1019.47 1019.53 1019.64 1019.79 1019.98 1020.20 1020.47 1020.78 1021.13 1021.51 1021.89 1022.25 1022.57 1022.81 1022.97 1023.03 1023.01 1022.92 1022.78 1022.61 1022.43 1022.26 1022.09 1021.91 1021.73 1021.51 1021.26 1020.97 1020.63 1020.26 1019.86 1019.43 1018.97 1018.47 1017.93 1017.36 1016.75 1016.13
1019.94 1020.26 1020.44 1020.51 1020.48 1020.36 1020.17 1019.94 1019.71 1019.48 1019.30 1019.19 1019.15 1019.19 1019.33 1019.54 1019.83 1020.18 1020.57 1020.97 1021.38 1021.77 1022.13 1022.43 1022.66 1022.83 1022.92 1022.95 1022.93 1022.86 1022.75 1022.61 1022.45 1022.27 1022.07 1021.86 1021.62 1021.36 1021.09 1020.80 1020.49 1020.16 1019.80 1019.40 1018.96 1018.45 1017.90 1017.30 1016.68
1020.34 1020.58 1020.74 1020.80 1020.76 1020.63 1020.41 1020.11 1019.76 1019.40 1019.08 1018.83 1018.70 1018.69 1018.81 1019.07 1019.43 1019.86 1020.33 1020.81 1021.26 1021.66 1022.01 1022.30 1022.53 1022.70 1022.82 1022.90 1022.94 1022.93 1022.88 1022.78 1022.64 1022.45 1022.23 1021.99 1021.74 1021.49 1021.24 1021.00 1020.76 1020.51 1020.23 1019.90 1019.51 1019.05 1018.52 1017.95 1017.34
1020.79 1020.97 1021.10 1021.16 1021.13 1020.97 1020.70 1020.31 1019.83 1019.33 1018.85 1018.46 1018.22 1018.16 1018.29 1018.58 1019.02 1019.55 1020.11 1020.65 1021.14 1021.57 1021.91 1022.19 1022.41 1022.59 1022.74 1022.86 1022.95 1023.00 1023.00 1022.94 1022.81 1022.62 1022.39 1022.14 1021.88 1021.64 1021.42 1021.23 1021.06 1020.88 1020.67 1020.41 1020.08 1019.66 1019.18 1018.63 1018.06
1021.28 1021.44 1021.57 1021.64 1021.60 1021.43 1021.09 1020.59 1019.98 1019.31 1018.67 1018.14 1017.79 1017.67 1017.79 1018.13 1018.64 1019.25 1019.90 1020.51 1021.05 1021.49 1021.83 1022.10 1022.31 1022.49 1022.66 1022.82 1022.95 1023.05 1023.09 1023.06 1022.95 1022.77 1022.53 1022.28 1022.02 1021.80 1021.62 1021.48 1021.36 1021.25 1021.10 1020.90 1020.62 1020.25 1019.81 1019.31 1018.78
1021.80 1021.98 1022.14 1022.24 1022.22 1022.01 1021.61 1021.00 1020.23 1019.39 1018.58 1017.90 1017.44 1017.26 1017.36 1017.73 1018.31 1019.00 1019.72 1020.40 1020.97 1021.43 1021.77 1022.02 1022.22 1022.40 1022.57 1022.75 1022.92 1023.06 1023.14 1023.14 1023.05 1022.88 1022.65 1022.40 1022.16 1021.96 1021.80 1021.70 1021.63 1021.56 1021.47 1021.31 1021.07 1020.75 1020.36 1019.92 1019.46
1022.34 1022.57 1022.80 1022.94 1022.94 1022.71 1022.23 1021.51 1020.59 1019.58 1018.61 1017.78 1017.21 1016.95 1017.04 1017.43 1018.05 1018.80 1019.58 1020.30 1020.91 1021.37 1021.70 1021.94 1022.11 1022.28 1022.45 1022.64 1022.83 1023.00 1023.11 1023.14 1023.08 1022.93 1022.72 1022.49 1022.27 1022.09 1021.96 1021.89 1021.85 1021.81 1021.74 1021.62 1021.42 1021.14 1020.81 1020.43 1020.05
1022.85 1023.18 1023.48 1023.69 1023.70 1023.46 1022.91 1022.08 1021.02 1019.86 1018.72 1017.76 1017.08 1016.76 1016.82 1017.21 1017.86 1018.64 1019.46 1020.20 1020.82 1021.28 1021.59 1021.80 1021.96 1022.10 1022.27 1022.46 1022.67 1022.86 1023.01 1023.07 1023.04 1022.92 1022.74 1022.53 1022.34 1022.18 1022.07 1022.02 1021.99 1021.97 1021.92 1021.82 1021.65 1021.41 1021.13 1020.83 1020.54
1023.32 1023.74 1024.13 1024.39 1024.43 1024.17 1023.56 1022.63 1021.45 1020.15 1018.89 1017.81 1017.04 1016.66 1016.68 1017.06 1017.71 1018.50 1019.33 1020.07 1020.68 1021.11 1021.40 1021.58 1021.71 1021.84 1022.00 1022.20 1022.42 1022.64 1022.81 1022.91 1022.93 1022.85 1022.71 1022.53 1022.36 1022.22 1022.13 1022.09 1022.07 1022.05 1022.01 1021.92 1021.77 1021.57 1021.34 1021.11 1020.90
1023.71 1024.22 1024.68 1024.99 1025.04 1024.74 1024.08 1023.07 1021.80 1020.40 1019.05 1017.89 1017.05 1016.62 1016.60 1016.95 1017.58 1018.36 1019.15 1019.87 1020.45 1020.85 1021.11 1021.26 1021.36 1021.47 1021.63 1021.83 1022.08 1022.33 1022.54 1022.69 1022.75 1022.72 1022.62 1022.49 1022.35 1022.23 1022.15 1022.11 1022.09 1022.07 1022.02 1021.94 1021.80 1021.63 1021.45 1021.28 1021.13
1024.01 1024.57 1025.07 1025.40 1025.44 1025.12 1024.42 1023.35 1022.02 1020.56 1019.16 1017.95 1017.08 1016.61 1016.55 1016.86 1017.45 1018.18 1018.92 1019.59 1020.11 1020.47 1020.69 1020.81 1020.89 1021.00 1021.16 1021.38 1021.65 1021.94 1022.20 1022.40 1022.51 1022.54 1022.49 1022.40 1022.30 1022.20 1022.13 1022.09 1022.07 1022.04 1021.99 1021.90 1021.78 1021.64 1021.49 1021.36 1021.26
1024.21 1024.79 1025.29 1025.60 1025.62 1025.26 1024.52 1023.42 1022.07 1020.61 1019.19 1017.98 1017.10 1016.61 1016.52 1016.78 1017.30 1017.96 1018.63 1019.22 1019.67 1019.98 1020.15 1020.25 1020.32 1020.43 1020.60 1020.85 1021.16 1021.49 1021.80 1022.05 1022.22 1022.31 1022.32 1022.27 1022.20 1022.13 1022.08 1022.04 1022.01 1021.98 1021.92 1021.84 1021.73 1021.60 1021.47 1021.37 1021.30
1024.32 1024.87 1025.33 1025.58 1025.55 1025.16 1024.39 1023.30 1021.97 1020.53 1019.16 1017.99 1017.12 1016.63 1016.51 1016.71 1017.15 1017.71 1018.28 1018.78 1019.16 1019.40 1019.54 1019.61 1019.68 1019.80 1019.99 1020.27 1020.62 1020.99 1021.35 1021.66 1021.89 1022.03 1022.09 1022.09 1022.06 1022.02 1021.98 1021.95 1021.93 1021.89 1021.84 1021.76 1021.66 1021.55 1021.43 1021.34 1021.27
1024.35 1024.82 1025.19 1025.37 1025.27 1024.84 1024.07 1023.00 1021.72 1020.37 1019.08 1017.98 1017.16 1016.68 1016.53 1016.67 1017.02 1017.47 1017.93 1018.33 1018.62 1018.79 1018.89 1018.94 1019.01 1019.14 1019.36 1019.67 1020.05 1020.46 1020.86 1021.21 1021.49 1021.68 1021.80 1021.85 1021.86 1021.85 1021.83 1021.82 1021.80 1021.78 1021.74 1021.67 1021.58 1021.48 1021.37 1021.28 1021.20
1024.30 1024.66 1024.92 1024.99 1024.82 1024.35 1023.58 1022.57 1021.39 1020.15 1018.98 1017.98 1017.23 1016.77 1016.60 1016.68 1016.93 1017.27 1017.61 1017.89 1018.09 1018.20 1018.25 1018.29 1018.36 1018.50 1018.74 1019.07 1019.47 1019.90 1020.33 1020.72 1021.03 1021.27 1021.43 1021.52 1021.58 1021.60 1021.62 1021.63 1021.64 1021.63 1021.61 1021.56 1021.49 1021.40 1021.30 1021.20 1021.11
Thickness
5684 5687 5689 5684 5671 5661 5669 5685 5702 5710 5715 5725 5727 5725 5722 5719 5719 5717 5730 5738 5738 5737 5737 5737 5737 5736 5735 5736 5735 5735 5735 5735 5735 5734 5734 5734 5734 5734 5734 5734 5734 5733 5733 5733 5733 5732 5731 5731 5730
5675 5677 5674 5665 5655 5650 5665 5684 5696 5708 5717 5721 5721 5719 5716 5715 5722 5725 5728 5732 5734 5734 5733 5733 5733 5732 5732 5732 5731 5731 5731 5731 5731 5731 5730 5730 5730 5730 5730 5730 5730 5730 5730 5730 5730 5729 5729 5728 5727
5664 5666 5657 5650 5648 5654 5669 5686 5696 5707 5714 5715 5710 5711 5710 5711 5718 5721 5725 5728 5729 5728 5728 5728 5728 5728 5728 5727 5727 5727 5727 5727 5727 5727 5727 5726 5727 5727 5727 5727 5727 5726 5726 5726 5726 5726 5725 5725 5725
5651 5647 5644 5639 5647 5660 5674 5685 5693 5700 5705 5707 5703 5699 5704 5712 5716 5719 5722 5723 5723 5722 5722 5722 5722 5723 5723 5723 5723 5723 5723 5723 5723 5723 5723 5723 5723 5723 5723 5723 5723 5723 5722 5722 5723 5722 5722 5722 5722
5638 5632 5628 5629 5643 5658 5671 5682 5689 5692 5694 5697 5695 5690 5694 5705 5713 5715 5716 5717 5717 5716 5716 5716 5716 5717 5717 5718 5718 5718 5718 5718 5718 5718 5718 5718 5718 5718 5718 5718 5718 5719 5718 5718 5719 5719 5719 5718 5718
5623 5621 5617 5621 5637 5653 5665 5675 5681 5682 5684 5688 5687 5683 5687 5698 5703 5706 5710 5710 5710 5710 5709 5709 5710 5710 5711 5712 5711 5712 5713 5713 5713 5713 5713 5713 5713 5713 5713 5714 5714 5714 5714 5714 5714 5714 5714 5714 5714
5614 5612 5614 5622 5631 5643 5657 5668 5669 5671 5675 5679 5683 5676 5680 5689 5695 5699 5702 5702 5702 5702 5702 5702 5702 5703 5704 5704 5704 5706 5707 5707 5708 5708 5708 5708 5708 5708 5708 5708 5709 5709 5709 5709 5709 5710 5710 5710 5710
5611 5608 5611 5616 5626 5636 5652 5659 5664 5666 5668 5676 5679 5672 5673 5682 5688 5692 5693 5692 5693 5693 5694 5694 5695 5696 5697 5698 5698 5699 5701 5701 5702 5702 5702 5702 5702 5703 5703 5703 5704 5704 5704 5704 5705 5705 5705 5706 5706
5607 5597 5601 5612 5622 5632 5645 5648 5654 5661 5664 5667 5670 5673 5677 5680 5682 5682 5682 5682 5683 5684 5684 5686 5687 5688 5690 5691 5692 5693 5694 5694 5695 5695 5696 5696 5697 5697 5697 5698 5698 5698 5699 5699 5699 5700 5700 5700 5701
5595 5590 5602 5614 5621 5627 5636 5641 5646 5651 5653 5655 5660 5665 5670 5672 5674 5673 5673 5673 5673 5674 5675 5678 5679 5681 5683 5684 5685 5686 5686 5688 5688 5689 5690 5690 5691 5691 5691 5692 5692 5693 5693 5693 5693 5694 5694 5694 5695
5591 5592 5603 5610 5618 5623 5628 5633 5641 5642 5643 5648 5653 5656 5660 5662 5664 5664 5664 5665 5666 5667 5668 5670 5672 5674 5676 5677 5678 5679 5679 5680 5682 5683 5683 5684 5685 5685 5685 5686 5686 5687 5687 5687 5688 5688 5688 5688 5688
5586 5592 5599 5604 5612 5617 5621 5627 5631 5635 5641 5647 5650 5652 5653 5654 5655 5656 5657 5658 5658 5659 5661 5663 5665 5667 5669 5670 5671 5672 5673 5673 5675 5676 5677 5678 5678 5678 5679 5679 5679 5679 5680 5680 5681 5681 5681 5682 5682
5581 5587 5595 5600 5606 5610 5616 5619 5623 5627 5635 5639 5642 5644 5644 5646 5648 5649 5651 5652 5652 5653 5654 5656 5658 5660 5661 5662 5664 5665 5666 5666 5668 5669 5670 5671 5671 5671 5672 5672 5672 5672 5673 5673 5674 5674 5674 5675 5675
5579 5583 5588 5594 5600 5605 5608 5612 5615 5620 5627 5630 5633 5634 5636 5638 5640 5642 5643 5644 5646 5647 5648 5649 5651 5652 5654 5656 5657 5658 5659 5660 5661 5662 5662 5663 5664 5664 5664 5664 5664 5664 5665 5666 5666 5666 5666 5667 5667
5578 5577 5582 5589 5596 5599 5603 5601 5606 5616 5619 5621 5624 5627 5628 5631 5633 5635 5637 5638 5639 5640 5641 5642 5644 5646 5647 5649 5650 5651 5652 5653 5653 5654 5655 5656 5656 5657 5657 5656 5656 5656 5657 5658 5658 5658 5658 5658 5659
5573 5569 5569 5582 5589 5593 5593 5591 5603 5609 5611 5613 5616 5619 5621 5624 5626 5629 5631 5632 5633 5634 5635 5636 5638 5639 5641 5642 5643 5644 5645 5645 5645 5646 5647 5647 5648 5648 5648 5648 5648 5648 5648 5649 5649 5649 5649 5649 5649
5561 5559 5565 5575 5584 5586 5586 5588 5599 5604 5606 5607 5610 5612 5614 5616 5619 5622 5624 5625 5626 5627 5628 5628 5630 5632 5633 5634 5636 5637 5637 5638 5638 5639 5639 5639 5639 5640 5640 5639 5639 5639 5639 5639 5639 5639 5639 5639 5639
5555 5559 5563 5566 5575 5579 5579 5584 5593 5598 5601 5602 5604 5606 5607 5610 5613 5616 5617 5618 5619 5619 5620 5621 5623 5624 5626 5626 5628 5629 5629 5630 5629 5630 5630 5630 5630 5630 5630 5630 5629 5630 5630 5629 5629 5629 5629 5629 5629
5560 5559 5560 5566 5573 5573 5574 5580 5588 5592 5595 5596 5597 5599 5601 5605 5608 5609 5610 5610 5611 5611 5612 5613 5615 5616 5618 5618 5619 5619 5620 5620 5620 5620 5621 5621 5621 5620 5620 5620 5620 5619 5619 5618 5618 5619 5619 5619 5619
5558 5555 5556 5563 5569 5570 5570 5576 5584 5589 5592 5594 5595 5595 5597 5598 5600 5601 5602 5602 5603 5604 5605 5606 5608 5609 5610 5611 5610 5610 5610 5611 5610 5610 5611 5611 5612 5611 5611 5610 5610 5610 5609 5608 5608 5608 5608 5608 5608
5552 5551 5552 5555 5560 5564 5565 5570 5579 5586 5590 5592 5593 5593 5593 5595 5595 5595 5595 5595 5595 5596 5598 5601 5601 5601 5602 5602 5602 5602 5601 5601 5600 5600 5600 5601 5602 5602 5601 5602 5601 5599 5599 5598 5597 5597 5597 5597 5596
5548 5553 5554 5554 5549 5545 5555 5552 5572 5578 5581 5586 5586 5586 5587 5590 5590 5589 5589 5589 5589 5590 5591 5592 5593 5594 5594 5594 5593 5592 5590 5589 5590 5590 5591 5592 5593 5593 5592 5592 5591 5590 5589 5588 5588 5587 5587 5587 5586
5549 5553 5552 5551 5545 5540 5546 5546 5559 5570 5575 5579 5580 5580 5581 5582 5583 5584 5584 5584 5584 5583 5583 5584 5585 5586 5586 5585 5585 5583 5582 5581 5581 5582 5582 5582 5583 5583 5583 5582 5582 5580 5580 5579 5578 5578 5577 5577 5576
5549 5547 5545 5535 5530 5537 5545 5541 5552 5560 5571 5577 5577 5577 5576 5577 5578 5578 5577 5577 5576 5575 5575 5576 5577 5577 5577 5576 5576 5575 5574 5573 5573 5573 5573 5573 5573 5573 5573 5573 5572 5571 5570 5570 5569 5568 5567 5567 5566
5542 5531 5521 5523 5518 5530 5542 5541 5549 5566 5571 5575 5575 5573 5571 5570 5570 5570 5569 5569 5568 5568 5568 5568 5568 5569 5569 5569 5568 5568 5567 5566 5565 5564 5564 5563 5563 5563 5563 5563 5563 5562 5561 5560 5559 5559 5558 5557 5557
5537 5533 5521 5523 5521 5524 5536 5538 5553 5564 5567 5570 5570 5569 5566 5564 5563 5563 5563 5563 5562 5562 5561 5560 5561 5561 5562 5561 5560 5560 5559 5558 5557 5556 5555 5554 5554 5554 5554 5554 5553 5552 5552 5551 5550 5549 5549 5548 5546
5536 5527 5529 5516 5514 5516 5526 5537 5553 5563 5563 5563 5562 5561 5559 5558 5558 5558 5557 5556 5555 5555 5554 5554 5554 5554 5554 5553 5552 5551 5550 5549 5548 5547 5547 5546 5545 5545 5545 5544 5544 5543 5542 5541 5541 5539 5538 5537 5536
5534 5528 5516 5516 5519 5522 5530 5533 5543 5555 5557 5557 5554 5552 5552 5552 5552 5552 5551 5550 5549 5549 5548 5546 5546 5546 5546 5545 5544 5544 5542 5541 5540 5539 5538 5537 5536 5536 5535 5535 5534 5533 5532 5532 5531 5529 5528 5527 5526
5527 5526 5519 5508 5508 5510 5515 5533 5551 5553 5553 5551 5549 5548 5546 5546 5545 5545 5544 5544 5542 5541 5540 5539 5539 5539 5539 5538 5536 5535 5534 5533 5532 5531 5530 5528 5527 5527 5526 5525 5524 5524 5523 5522 5521 5519 5518 5517 5516
5524 5524 5515 5510 5507 5498 5497 5525 5552 5550 5548 5547 5545 5544 5542 5541 5539 5538 5537 5535 5534 5533 5533 5532 5532 5532 5531 5530 5529 5528 5526 5524 5523 5522 5521 5520 5519 5518 5517 5516 5515 5514 5514 5513 5512 5510 5509 5508 5506